Location: Sungai Liu
(2.3667°N, 113.8667°E)
Time: 13:55:28
(UTC+00:00)

Cosmos 2344 - Pass Details

Date: 20 May 2022
Orbit: 1228 x 3015 km, 63.3° (Epoch: 06 July)

Event Time Altitude Azimuth Distance (km) Brightness Sun altitude
Rises 12:30:30 0° 204° (SSW) 5,471 6.9 -29.2°
Reaches altitude 10° 12:34:13 10° 204° (SSW) 4,224 6.3 -30.1°
Maximum altitude 12:44:24 87° 293° (WNW) 1,472 3.7 -32.4°
Drops below altitude 10° 12:52:07 10° 22° (NNE) 3,267 5.7 -34.1°
Sets 12:54:39 0° 23° (NNE) 4,174 6.3 -34.7°
